{"data":{"norad_id":40973,"intl_designator":"2015-058K","name":"PROPCUBE 3","alt_names":[],"object_type":"PAYLOAD","status":"ACTIVE","operator":null,"country":"US","launch_date":"2015-10-08","launch_site_code":"AFWTR","launch_vehicle":null,"mission":null,"orbit_class":"UNKNOWN","rcs_meters":null,"size_class":null,"mass_kg":null,"dimensions":null,"purposes":["tech_demo"],"wikipedia_slug":null,"has_3d_model":false,"image_url":null,"decayed_at":null,"tle_current":{"epoch":"2026-09-20T03:51:17.839296Z","epoch_age_seconds":43584,"freshness":"FRESH","line1":"1 40973U 15058K   26263.16062314  .00001469  00000+0  12790-3 0  9995","line2":"2 40973  64.7675 315.6615 0131881  23.9706 336.7471 14.94780284128993","mean_motion":14.94780284,"eccentricity":0.0131881,"inclination_deg":64.7675,"raan_deg":315.6615,"arg_perigee_deg":23.9706,"mean_anomaly_deg":336.7471,"bstar":0.0001279,"rev_number":12899,"period_min":96.335228355206,"perigee_km":491.2499187344,"apogee_km":674.85970621865,"semimajor_km":6961.1918124765,"source":"CELESTRAK","updated_at":"2026-09-20T09:00:48.029856Z"}}}